| time (UTC) | temp F | wind direction | speed MPH | gust MPH | rain 1hr in | rain 24hr in | rain mn in | humidity % | barometer mb |
| 20260508192517 | 66 | 178 | 0.0 | 0.0 | 0.00 | 0.00 | 0.00 | 78 | 1011.6 |
| 20260508192022 | 66 | 178 | 0.0 | 0.0 | 0.00 | 0.00 | 0.00 | 78 | 1011.6 |
| 20260508191518 | 66 | 178 | 0.0 | 2.0 | 0.00 | 0.00 | 0.00 | 76 | 1011.6 |
| 20260508191035 | 66 | 178 | 0.0 | 3.0 | 0.00 | 0.00 | 0.00 | 75 | 1011.1 |
| 20260508190546 | 66 | 248 | 0.0 | 3.0 | 0.00 | 0.00 | 0.00 | 75 | 1011.1 |
| 20260508190028 | 66 | 283 | 0.0 | 3.0 | 0.00 | 0.00 | 0.00 | 77 | 1011.1 |
| 20260508185521 | 66 | 259 | 0.0 | 2.0 | 0.00 | 0.00 | 0.00 | 75 | 1011.6 |
| 20260508185022 | 66 | 233 | 1.0 | 2.0 | 0.00 | 0.00 | 0.00 | 76 | 1011.6 |
| 20260508184534 | 66 | 250 | 1.0 | 2.0 | 0.00 | 0.00 | 0.00 | 77 | 1011.6 |
| 20260508184042 | 66 | 250 | 0.0 | 1.0 | 0.00 | 0.00 | 0.00 | 76 | 1011.8 |
| 20260508183533 | 67 | 250 | 0.0 | 1.0 | 0.00 | 0.00 | 0.00 | 77 | 1011.8 |
| 20260508183031 | 67 | 250 | 0.0 | 1.0 | 0.00 | 0.00 | 0.00 | 72 | 1011.8 |
| 20260508182532 | 67 | 254 | 0.0 | 2.0 | 0.00 | 0.00 | 0.00 | 73 | 1012.3 |
| 20260508182018 | 67 | 286 | 1.0 | 3.0 | 0.00 | 0.00 | 0.00 | 71 | 1012.3 |
| 20260508181524 | 67 | 180 | 1.0 | 3.0 | 0.00 | 0.00 | 0.00 | 70 | 1012.3 |
| 20260508181031 | 67 | 227 | 1.0 | 3.0 | 0.00 | 0.00 | 0.00 | 69 | 1012.4 |
| 20260508180516 | 67 | 179 | 0.0 | 3.0 | 0.00 | 0.00 | 0.00 | 73 | 1012.4 |
| 20260508180032 | 67 | 244 | 0.0 | 3.0 | 0.00 | 0.00 | 0.00 | 70 | 1012.4 |
| 20260508175536 | 67 | 236 | 1.0 | 4.0 | 0.00 | 0.00 | 0.00 | 70 | 1012.7 |
| 20260508175041 | 67 | 232 | 1.0 | 4.0 | 0.00 | 0.00 | 0.00 | 70 | 1012.7 |
| 20260508174533 | 67 | 297 | 0.0 | 2.0 | 0.00 | 0.00 | 0.00 | 74 | 1012.7 |
| 20260508174037 | 67 | 236 | 0.0 | 2.0 | 0.00 | 0.00 | 0.00 | 72 | 1012.8 |
| 20260508173542 | 68 | 265 | 0.0 | 2.0 | 0.00 | 0.00 | 0.00 | 71 | 1012.8 |
| 20260508173028 | 68 | 265 | 0.0 | 2.0 | 0.00 | 0.00 | 0.00 | 71 | 1012.8 |
| 20260508172538 | 68 | 279 | 1.0 | 2.0 | 0.00 | 0.00 | 0.00 | 72 | 1012.9 |
| 20260508172041 | 68 | 279 | 0.0 | 2.0 | 0.00 | 0.00 | 0.00 | 72 | 1012.9 |
| 20260508171552 | 68 | 279 | 0.0 | 2.0 | 0.00 | 0.00 | 0.00 | 71 | 1012.9 |
| 20260508171025 | 68 | 269 | 0.0 | 1.0 | 0.00 | 0.00 | 0.00 | 70 | 1013.2 |
| 20260508170520 | 68 | 269 | 0.0 | 2.0 | 0.00 | 0.00 | 0.00 | 69 | 1013.2 |
| 20260508170038 | 68 | 307 | 1.0 | 3.0 | 0.00 | 0.00 | 0.00 | 71 | 1013.2 |
| 20260508165534 | 68 | 308 | 1.0 | 2.0 | 0.00 | 0.00 | 0.00 | 71 | 1013.5 |
| 20260508165039 | 68 | 308 | 0.0 | 2.0 | 0.00 | 0.00 | 0.00 | 69 | 1013.5 |
| 20260508164522 | 68 | 308 | 0.0 | 2.0 | 0.00 | 0.00 | 0.00 | 68 | 1013.5 |
| 20260508164025 | 69 | 308 | 0.0 | 2.0 | 0.00 | 0.00 | 0.00 | 70 | 1013.6 |
| 20260508163529 | 69 | 308 | 1.0 | 2.0 | 0.00 | 0.00 | 0.00 | 71 | 1013.6 |
| 20260508163020 | 69 | 308 | 0.0 | 2.0 | 0.00 | 0.00 | 0.00 | 72 | 1013.6 |
| 20260508162528 | 69 | 308 | 1.0 | 3.0 | 0.00 | 0.00 | 0.00 | 72 | 1013.8 |
| 20260508162018 | 69 | 308 | 1.0 | 3.0 | 0.00 | 0.00 | 0.00 | 71 | 1013.8 |
| 20260508161515 | 69 | 304 | 1.0 | 3.0 | 0.00 | 0.00 | 0.00 | 73 | 1013.8 |
| 20260508161025 | 68 | 300 | 1.0 | 3.0 | 0.00 | 0.00 | 0.00 | 74 | 1013.9 |
| 20260508160039 | 67 | 300 | 1.0 | 2.0 | 0.00 | 0.00 | 0.00 | 74 | 1013.9 |
| 20260508155538 | 66 | 229 | 0.0 | 2.0 | 0.00 | 0.00 | 0.00 | 72 | 1014.4 |
| 20260508155023 | 65 | 294 | 1.0 | 2.0 | 0.00 | 0.00 | 0.00 | 74 | 1014.4 |
| 20260508154542 | 65 | 180 | 0.0 | 4.0 | 0.00 | 0.00 | 0.00 | 73 | 1014.4 |
| 20260508154044 | 65 | 260 | 0.0 | 3.0 | 0.00 | 0.00 | 0.00 | 75 | 1014.0 |
| 20260508153535 | 64 | 308 | 1.0 | 3.0 | 0.00 | 0.00 | 0.00 | 77 | 1014.0 |
| 20260508153022 | 64 | 204 | 1.0 | 4.0 | 0.00 | 0.00 | 0.00 | 75 | 1014.0 |
| 20260508152552 | 64 | 293 | 0.0 | 2.0 | 0.00 | 0.00 | 0.00 | 80 | 1014.0 |
| 20260508152030 | 64 | 256 | 0.0 | 2.0 | 0.00 | 0.00 | 0.00 | 81 | 1014.0 |
| 20260508151516 | 63 | 253 | 0.0 | 3.0 | 0.00 | 0.00 | 0.00 | 81 | 1014.0 |
| 20260508151048 | 63 | 253 | 1.0 | 3.0 | 0.00 | 0.00 | 0.00 | 82 | 1014.2 |
| 20260508150529 | 63 | 252 | 0.0 | 2.0 | 0.00 | 0.00 | 0.00 | 83 | 1014.2 |
| 20260508150015 | 63 | 252 | 0.0 | 1.0 | 0.00 | 0.00 | 0.00 | 82 | 1014.2 |
| 20260508145551 | 63 | 252 | 0.0 | 1.0 | 0.00 | 0.00 | 0.00 | 83 | 1014.3 |
| 20260508145034 | 63 | 252 | 0.0 | 2.0 | 0.00 | 0.00 | 0.00 | 85 | 1014.3 |
| 20260508144538 | 62 | 252 | 0.0 | 2.0 | 0.00 | 0.00 | 0.00 | 85 | 1014.3 |
| 20260508144027 | 62 | 252 | 0.0 | 1.0 | 0.00 | 0.00 | 0.00 | 84 | 1014.4 |
| 20260508143541 | 62 | 252 | 0.0 | 3.0 | 0.00 | 0.00 | 0.00 | 84 | 1014.4 |
| 20260508143049 | 61 | 252 | 1.0 | 3.0 | 0.00 | 0.00 | 0.00 | 85 | 1014.4 |
| 20260508142530 | 61 | 282 | 0.0 | 0.0 | 0.00 | 0.00 | 0.00 | 86 | 1014.4 |
| 20260508142025 | 61 | 282 | 0.0 | 0.0 | 0.00 | 0.00 | 0.00 | 87 | 1014.4 |
| 20260508141524 | 61 | 284 | 0.0 | 0.0 | 0.00 | 0.00 | 0.00 | 88 | 1014.4 |
| 20260508141017 | 60 | 265 | 0.0 | 0.0 | 0.00 | 0.00 | 0.00 | 90 | 1014.5 |
| 20260508140535 | 60 | 265 | 0.0 | 0.0 | 0.00 | 0.00 | 0.00 | 89 | 1014.5 |
| 20260508140015 | 60 | 199 | 0.0 | 0.0 | 0.00 | 0.01 | 0.00 | 91 | 1014.5 |
| 20260508135548 | 59 | 161 | 0.0 | 0.0 | 0.00 | 0.01 | 0.00 | 91 | 1014.8 |
| 20260508134543 | 59 | 161 | 0.0 | 0.0 | 0.00 | 0.01 | 0.00 | 91 | 1014.8 |
| 20260508134046 | 58 | 161 | 0.0 | 0.0 | 0.00 | 0.01 | 0.00 | 92 | 1014.9 |
| 20260508133513 | 58 | 161 | 0.0 | 0.0 | 0.00 | 0.01 | 0.00 | 92 | 1014.9 |
| 20260508133035 | 58 | 161 | 0.0 | 0.0 | 0.00 | 0.01 | 0.00 | 92 | 1014.9 |
| 20260508132520 | 58 | 161 | 0.0 | 0.0 | 0.00 | 0.01 | 0.00 | 93 | 1014.7 |
| 20260508132059 | 57 | 161 | 0.0 | 0.0 | 0.00 | 0.01 | 0.00 | 93 | 1014.7 |
| 20260508131525 | 57 | 161 | 0.0 | 0.0 | 0.00 | 0.01 | 0.00 | 94 | 1014.7 |
| 20260508130028 | 57 | 161 | 0.0 | 0.0 | 0.00 | 0.01 | 0.00 | 95 | 1014.5 |
| 20260508125602 | 56 | 161 | 0.0 | 0.0 | 0.00 | 0.01 | 0.00 | 95 | 1014.5 |
| 20260508125043 | 56 | 161 | 0.0 | 0.0 | 0.00 | 0.01 | 0.00 | 94 | 1014.5 |
| 20260508124529 | 56 | 161 | 0.0 | 0.0 | 0.00 | 0.01 | 0.00 | 95 | 1014.5 |
| 20260508124018 | 56 | 161 | 0.0 | 0.0 | 0.00 | 0.01 | 0.00 | 95 | 1014.5 |
| 20260508123522 | 56 | 161 | 0.0 | 0.0 | 0.00 | 0.01 | 0.00 | 95 | 1014.5 |
| 20260508123040 | 56 | 161 | 0.0 | 0.0 | 0.00 | 0.01 | 0.00 | 95 | 1014.5 |
| 20260508122542 | 56 | 161 | 0.0 | 0.0 | 0.00 | 0.01 | 0.00 | 95 | 1014.1 |
| 20260508122031 | 55 | 161 | 0.0 | 0.0 | 0.00 | 0.01 | 0.00 | 95 | 1014.1 |
| 20260508121024 | 55 | 161 | 0.0 | 0.0 | 0.00 | 0.01 | 0.00 | 95 | 1013.9 |
| 20260508120520 | 55 | 161 | 0.0 | 0.0 | 0.00 | 0.01 | 0.00 | 95 | 1013.9 |
| 20260508120016 | 55 | 161 | 0.0 | 0.0 | 0.00 | 0.01 | 0.00 | 95 | 1013.9 |
| 20260508115542 | 55 | 161 | 0.0 | 0.0 | 0.00 | 0.01 | 0.00 | 95 | 1013.8 |
| 20260508115021 | 55 | 161 | 0.0 | 0.0 | 0.00 | 0.01 | 0.00 | 95 | 1013.8 |
| 20260508114518 | 55 | 161 | 0.0 | 0.0 | 0.00 | 0.01 | 0.00 | 95 | 1013.8 |
| 20260508113521 | 55 | 161 | 0.0 | 0.0 | 0.00 | 0.01 | 0.00 | 95 | 1013.4 |
| 20260508113025 | 55 | 161 | 0.0 | 0.0 | 0.00 | 0.01 | 0.00 | 95 | 1013.4 |
| 20260508112554 | 55 | 161 | 0.0 | 0.0 | 0.00 | 0.01 | 0.00 | 95 | 1013.3 |
| 20260508112024 | 55 | 161 | 0.0 | 1.0 | 0.00 | 0.01 | 0.00 | 95 | 1013.3 |
| 20260508111528 | 55 | 161 | 0.0 | 1.0 | 0.00 | 0.01 | 0.00 | 94 | 1013.3 |
| 20260508111026 | 55 | 161 | 0.0 | 0.0 | 0.00 | 0.01 | 0.00 | 95 | 1013.0 |
| 20260508110541 | 55 | 161 | 0.0 | 0.0 | 0.00 | 0.01 | 0.00 | 95 | 1013.0 |
| 20260508110021 | 55 | 161 | 0.0 | 0.0 | 0.00 | 0.01 | 0.00 | 95 | 1013.0 |
| 20260508105519 | 55 | 161 | 0.0 | 0.0 | 0.00 | 0.01 | 0.00 | 95 | 1012.9 |
| 20260508104529 | 55 | 161 | 0.0 | 0.0 | 0.00 | 0.01 | 0.00 | 94 | 1012.9 |
| 20260508104018 | 55 | 161 | 0.0 | 0.0 | 0.00 | 0.01 | 0.00 | 94 | 1012.9 |
| 20260508103522 | 55 | 161 | 0.0 | 0.0 | 0.00 | 0.01 | 0.00 | 95 | 1012.9 |
| 20260508103039 | 55 | 161 | 0.0 | 0.0 | 0.00 | 0.01 | 0.00 | 95 | 1012.9 |
| 20260508102539 | 55 | 161 | 0.0 | 0.0 | 0.00 | 0.01 | 0.00 | 95 | 1012.8 |
| 20260508102041 | 55 | 161 | 0.0 | 0.0 | 0.00 | 0.01 | 0.00 | 95 | 1012.8 |
| 20260508101530 | 55 | 161 | 0.0 | 0.0 | 0.00 | 0.01 | 0.00 | 95 | 1012.8 |
| 20260508101023 | 55 | 161 | 0.0 | 0.0 | 0.00 | 0.01 | 0.00 | 95 | 1012.8 |
| 20260508100522 | 55 | 161 | 0.0 | 0.0 | 0.00 | 0.01 | 0.00 | 95 | 1012.8 |
| 20260508100033 | 55 | 161 | 0.0 | 0.0 | 0.00 | 0.02 | 0.00 | 95 | 1012.8 |
| 20260508095523 | 55 | 161 | 0.0 | 0.0 | 0.00 | 0.02 | 0.00 | 95 | 1012.4 |
| 20260508095023 | 55 | 161 | 0.0 | 0.0 | 0.00 | 0.02 | 0.00 | 94 | 1012.4 |
| 20260508094554 | 55 | 161 | 0.0 | 0.0 | 0.00 | 0.02 | 0.00 | 94 | 1012.4 |
| 20260508094025 | 55 | 161 | 0.0 | 0.0 | 0.00 | 0.02 | 0.00 | 94 | 1011.9 |
| 20260508093534 | 55 | 161 | 0.0 | 0.0 | 0.00 | 0.02 | 0.00 | 94 | 1011.9 |
| 20260508093019 | 55 | 161 | 0.0 | 0.0 | 0.00 | 0.02 | 0.00 | 94 | 1011.9 |
| 20260508092029 | 55 | 161 | 0.0 | 0.0 | 0.00 | 0.02 | 0.00 | 94 | 1011.4 |
| 20260508091536 | 56 | 161 | 0.0 | 0.0 | 0.00 | 0.02 | 0.00 | 94 | 1011.4 |
| 20260508091040 | 56 | 161 | 0.0 | 0.0 | 0.00 | 0.02 | 0.00 | 94 | 1011.4 |
| 20260508090531 | 56 | 161 | 0.0 | 0.0 | 0.00 | 0.02 | 0.00 | 94 | 1011.4 |
| 20260508090037 | 56 | 161 | 0.0 | 0.0 | 0.00 | 0.12 | 0.00 | 94 | 1011.4 |
| 20260508085521 | 56 | 161 | 0.0 | 0.0 | 0.00 | 0.12 | 0.00 | 94 | 1011.4 |
| 20260508085033 | 56 | 161 | 0.0 | 0.0 | 0.00 | 0.12 | 0.00 | 94 | 1011.4 |
| 20260508084521 | 56 | 161 | 0.0 | 0.0 | 0.00 | 0.12 | 0.00 | 94 | 1011.4 |
| 20260508084057 | 56 | 161 | 0.0 | 0.0 | 0.00 | 0.12 | 0.00 | 94 | 1011.3 |
| 20260508083535 | 56 | 161 | 0.0 | 0.0 | 0.00 | 0.12 | 0.00 | 94 | 1011.3 |
| 20260508083046 | 56 | 161 | 0.0 | 0.0 | 0.00 | 0.12 | 0.00 | 94 | 1011.3 |
| 20260508082530 | 56 | 161 | 0.0 | 0.0 | 0.00 | 0.12 | 0.00 | 94 | 1011.2 |
| 20260508082031 | 56 | 161 | 0.0 | 0.0 | 0.00 | 0.12 | 0.00 | 94 | 1011.2 |
| 20260508081547 | 56 | 161 | 0.0 | 0.0 | 0.00 | 0.12 | 0.00 | 94 | 1011.2 |
| 20260508081033 | 56 | 161 | 0.0 | 0.0 | 0.00 | 0.12 | 0.00 | 94 | 1011.3 |
| 20260508080533 | 57 | 161 | 0.0 | 0.0 | 0.00 | 0.12 | 0.00 | 94 | 1011.3 |
| 20260508080041 | 57 | 161 | 0.0 | 0.0 | 0.00 | 0.17 | 0.00 | 94 | 1011.3 |
| 20260508075521 | 57 | 161 | 0.0 | 0.0 | 0.00 | 0.17 | 0.00 | 94 | 1011.6 |
| 20260508075102 | 57 | 161 | 0.0 | 0.0 | 0.00 | 0.17 | 0.00 | 94 | 1011.6 |
| 20260508074546 | 57 | 161 | 0.0 | 0.0 | 0.00 | 0.17 | 0.00 | 94 | 1011.6 |
| 20260508074021 | 57 | 161 | 0.0 | 0.0 | 0.00 | 0.17 | 0.00 | 94 | 1011.8 |
| 20260508073525 | 57 | 161 | 0.0 | 0.0 | 0.00 | 0.17 | 0.00 | 94 | 1011.8 |
| 20260508073030 | 57 | 161 | 0.0 | 0.0 | 0.00 | 0.17 | 0.00 | 94 | 1011.8 |
| 20260508072540 | 57 | 161 | 0.0 | 0.0 | 0.00 | 0.17 | 0.00 | 93 | 1011.9 |
| 20260508072026 | 57 | 161 | 0.0 | 0.0 | 0.00 | 0.17 | 0.00 | 94 | 1011.9 |
| 20260508071531 | 57 | 161 | 0.0 | 0.0 | 0.00 | 0.17 | 0.00 | 94 | 1011.9 |
| 20260508071039 | 58 | 161 | 0.0 | 0.0 | 0.00 | 0.17 | 0.00 | 94 | 1011.8 |
| 20260508070528 | 58 | 161 | 0.0 | 0.0 | 0.00 | 0.17 | 0.00 | 94 | 1011.8 |
| 20260508070104 | 58 | 161 | 0.0 | 0.0 | 0.00 | 0.18 | 0.00 | 94 | 1011.8 |
| 20260508065545 | 58 | 161 | 0.0 | 0.0 | 0.00 | 0.18 | 0.00 | 94 | 1011.8 |
| 20260508065042 | 58 | 161 | 0.0 | 0.0 | 0.00 | 0.18 | 0.00 | 93 | 1011.8 |
| 20260508064532 | 58 | 161 | 0.0 | 0.0 | 0.00 | 0.18 | 0.00 | 93 | 1011.8 |
| 20260508064035 | 58 | 161 | 0.0 | 0.0 | 0.00 | 0.18 | 0.00 | 93 | 1011.9 |
| 20260508063523 | 58 | 161 | 0.0 | 0.0 | 0.00 | 0.18 | 0.00 | 93 | 1011.9 |
| 20260508063038 | 58 | 161 | 0.0 | 0.0 | 0.00 | 0.18 | 0.00 | 93 | 1011.9 |
| 20260508062540 | 58 | 161 | 0.0 | 0.0 | 0.00 | 0.18 | 0.00 | 93 | 1011.9 |
| 20260508062039 | 58 | 161 | 0.0 | 0.0 | 0.00 | 0.18 | 0.00 | 93 | 1011.9 |
| 20260508061525 | 58 | 161 | 0.0 | 0.0 | 0.00 | 0.18 | 0.00 | 93 | 1011.9 |
| 20260508061028 | 58 | 161 | 0.0 | 0.0 | 0.00 | 0.18 | 0.00 | 93 | 1012.0 |
| 20260508060517 | 58 | 161 | 0.0 | 0.0 | 0.00 | 0.18 | 0.00 | 92 | 1012.0 |
| 20260508060030 | 58 | 161 | 0.0 | 0.0 | 0.00 | 0.21 | 0.00 | 92 | 1012.0 |
| 20260508055524 | 58 | 161 | 0.0 | 0.0 | 0.00 | 0.21 | 0.00 | 92 | 1012.3 |
| 20260508055025 | 58 | 161 | 0.0 | 0.0 | 0.00 | 0.21 | 0.00 | 92 | 1012.3 |
| 20260508054524 | 58 | 161 | 0.0 | 0.0 | 0.00 | 0.21 | 0.00 | 92 | 1012.3 |
| 20260508054038 | 58 | 161 | 0.0 | 0.0 | 0.00 | 0.21 | 0.00 | 92 | 1012.5 |
| 20260508053529 | 58 | 161 | 0.0 | 0.0 | 0.00 | 0.21 | 0.00 | 92 | 1012.5 |
| 20260508053103 | 58 | 161 | 0.0 | 0.0 | 0.00 | 0.21 | 0.00 | 92 | 1012.5 |
| 20260508052557 | 58 | 161 | 0.0 | 0.0 | 0.00 | 0.21 | 0.00 | 92 | 1012.4 |
| 20260508052027 | 58 | 161 | 0.0 | 0.0 | 0.00 | 0.21 | 0.00 | 91 | 1012.4 |
| 20260508051532 | 59 | 161 | 0.0 | 0.0 | 0.00 | 0.21 | 0.00 | 91 | 1012.4 |
| 20260508051039 | 59 | 161 | 0.0 | 0.0 | 0.00 | 0.21 | 0.00 | 91 | 1012.7 |
| 20260508050532 | 59 | 161 | 0.0 | 0.0 | 0.00 | 0.21 | 0.00 | 91 | 1012.7 |
| 20260508050040 | 59 | 161 | 0.0 | 0.0 | 0.00 | 0.24 | 0.21 | 91 | 1012.7 |
| 20260508045528 | 59 | 161 | 0.0 | 0.0 | 0.00 | 0.24 | 0.21 | 91 | 1012.5 |
| 20260508045043 | 59 | 161 | 0.0 | 0.0 | 0.00 | 0.24 | 0.21 | 91 | 1012.5 |
| 20260508044526 | 59 | 161 | 0.0 | 1.0 | 0.00 | 0.24 | 0.21 | 91 | 1012.5 |
| 20260508044025 | 59 | 161 | 0.0 | 1.0 | 0.00 | 0.24 | 0.21 | 91 | 1012.6 |
| 20260508043538 | 59 | 161 | 0.0 | 0.0 | 0.00 | 0.24 | 0.21 | 91 | 1012.6 |
| 20260508043031 | 59 | 161 | 0.0 | 0.0 | 0.00 | 0.24 | 0.21 | 90 | 1012.6 |
| 20260508042518 | 59 | 161 | 0.0 | 0.0 | 0.00 | 0.24 | 0.21 | 90 | 1012.4 |
| 20260508042025 | 59 | 161 | 0.0 | 0.0 | 0.00 | 0.24 | 0.21 | 90 | 1012.4 |
| 20260508041603 | 59 | 161 | 0.0 | 0.0 | 0.00 | 0.24 | 0.21 | 90 | 1012.4 |
| 20260508041054 | 59 | 161 | 0.0 | 0.0 | 0.00 | 0.24 | 0.21 | 90 | 1012.5 |
| 20260508040538 | 60 | 161 | 0.0 | 0.0 | 0.00 | 0.24 | 0.21 | 90 | 1012.5 |
| 20260508040023 | 60 | 161 | 0.0 | 0.0 | 0.00 | 0.36 | 0.21 | 90 | 1012.5 |
| 20260508035533 | 60 | 161 | 0.0 | 0.0 | 0.00 | 0.36 | 0.21 | 90 | 1012.6 |
| 20260508035035 | 60 | 161 | 0.0 | 0.0 | 0.00 | 0.36 | 0.21 | 90 | 1012.6 |
| 20260508034034 | 60 | 161 | 0.0 | 0.0 | 0.00 | 0.36 | 0.21 | 90 | 1012.4 |
| 20260508033519 | 60 | 161 | 0.0 | 0.0 | 0.00 | 0.36 | 0.21 | 90 | 1012.4 |
| 20260508033022 | 60 | 161 | 0.0 | 0.0 | 0.00 | 0.36 | 0.21 | 89 | 1012.4 |
| 20260508032538 | 60 | 161 | 0.0 | 0.0 | 0.00 | 0.36 | 0.21 | 90 | 1012.3 |
| 20260508032042 | 60 | 161 | 0.0 | 0.0 | 0.00 | 0.36 | 0.21 | 89 | 1012.3 |
| 20260508031556 | 61 | 161 | 0.0 | 0.0 | 0.00 | 0.36 | 0.21 | 90 | 1012.3 |
| 20260508030536 | 61 | 161 | 0.0 | 0.0 | 0.00 | 0.36 | 0.21 | 89 | 1012.3 |
| 20260508030039 | 61 | 161 | 0.0 | 0.0 | 0.00 | 0.55 | 0.21 | 89 | 1012.3 |
| 20260508025543 | 61 | 161 | 0.0 | 0.0 | 0.00 | 0.55 | 0.21 | 89 | 1012.3 |
| 20260508025028 | 61 | 161 | 0.0 | 0.0 | 0.00 | 0.55 | 0.21 | 89 | 1012.3 |
| 20260508024538 | 61 | 161 | 0.0 | 0.0 | 0.00 | 0.55 | 0.21 | 89 | 1012.3 |
| 20260508024046 | 61 | 161 | 0.0 | 0.0 | 0.00 | 0.55 | 0.21 | 89 | 1011.9 |
| 20260508023543 | 62 | 161 | 0.0 | 0.0 | 0.00 | 0.55 | 0.21 | 89 | 1011.9 |
| 20260508023021 | 62 | 161 | 0.0 | 0.0 | 0.00 | 0.55 | 0.21 | 89 | 1011.9 |
| 20260508022529 | 62 | 161 | 0.0 | 0.0 | 0.00 | 0.55 | 0.21 | 89 | 1011.9 |
| 20260508022030 | 62 | 161 | 0.0 | 0.0 | 0.00 | 0.55 | 0.21 | 89 | 1011.9 |
| 20260508021522 | 62 | 161 | 0.0 | 0.0 | 0.00 | 0.55 | 0.21 | 89 | 1011.9 |
| 20260508021026 | 62 | 161 | 0.0 | 0.0 | 0.00 | 0.55 | 0.21 | 88 | 1011.9 |
| 20260508020602 | 62 | 161 | 0.0 | 0.0 | 0.00 | 0.55 | 0.21 | 88 | 1011.9 |
| 20260508020024 | 62 | 161 | 0.0 | 0.0 | 0.00 | 0.55 | 0.21 | 87 | 1011.9 |
| 20260508015534 | 63 | 161 | 0.0 | 0.0 | 0.00 | 0.55 | 0.21 | 87 | 1011.8 |
| 20260508015019 | 63 | 161 | 0.0 | 0.0 | 0.00 | 0.55 | 0.21 | 87 | 1011.8 |
| 20260508014532 | 63 | 161 | 0.0 | 0.0 | 0.00 | 0.55 | 0.21 | 86 | 1011.8 |
| 20260508014022 | 63 | 161 | 0.0 | 0.0 | 0.00 | 0.55 | 0.21 | 86 | 1011.8 |
| 20260508013526 | 63 | 161 | 0.0 | 0.0 | 0.00 | 0.55 | 0.21 | 85 | 1011.8 |
| 20260508013036 | 64 | 161 | 0.0 | 0.0 | 0.00 | 0.55 | 0.21 | 85 | 1011.8 |
| 20260508012531 | 64 | 161 | 0.0 | 0.0 | 0.00 | 0.55 | 0.21 | 85 | 1011.8 |
| 20260508012018 | 64 | 161 | 0.0 | 0.0 | 0.00 | 0.55 | 0.21 | 84 | 1011.8 |
| 20260508011552 | 64 | 161 | 0.0 | 0.0 | 0.00 | 0.55 | 0.21 | 84 | 1011.8 |
| 20260508011043 | 65 | 161 | 0.0 | 0.0 | 0.00 | 0.55 | 0.21 | 84 | 1011.4 |
| 20260508010529 | 65 | 161 | 0.0 | 0.0 | 0.00 | 0.55 | 0.21 | 84 | 1011.4 |
| 20260508010017 | 65 | 161 | 0.0 | 0.0 | 0.00 | 0.55 | 0.21 | 83 | 1011.4 |
| 20260508005528 | 66 | 161 | 0.0 | 0.0 | 0.00 | 0.55 | 0.21 | 83 | 1011.3 |
| 20260508005021 | 66 | 161 | 0.0 | 0.0 | 0.00 | 0.55 | 0.21 | 83 | 1011.3 |
| 20260508004530 | 66 | 161 | 0.0 | 0.0 | 0.00 | 0.55 | 0.21 | 83 | 1011.3 |
| 20260508004041 | 66 | 161 | 0.0 | 0.0 | 0.00 | 0.55 | 0.21 | 83 | 1011.3 |
| 20260508003531 | 67 | 161 | 0.0 | 0.0 | 0.00 | 0.55 | 0.21 | 83 | 1011.3 |
| 20260508003034 | 67 | 161 | 0.0 | 0.0 | 0.00 | 0.55 | 0.21 | 83 | 1011.3 |
| 20260508002522 | 67 | 161 | 0.0 | 0.0 | 0.00 | 0.55 | 0.21 | 82 | 1011.2 |
| 20260508002037 | 67 | 161 | 0.0 | 0.0 | 0.00 | 0.55 | 0.21 | 83 | 1011.2 |
| 20260508001531 | 67 | 161 | 0.0 | 0.0 | 0.00 | 0.55 | 0.21 | 82 | 1011.2 |
| 20260508001030 | 67 | 161 | 0.0 | 1.0 | 0.00 | 0.55 | 0.21 | 82 | 1010.9 |
| 20260508000531 | 67 | 161 | 0.0 | 1.0 | 0.00 | 0.55 | 0.21 | 83 | 1010.9 |
| 20260508000014 | 68 | 161 | 0.0 | 0.0 | 0.00 | 0.55 | 0.21 | 83 | 1010.9 |
| 20260507235525 | 68 | 161 | 0.0 | 0.0 | 0.00 | 0.55 | 0.21 | 85 | 1010.8 |
| 20260507235102 | 68 | 161 | 0.0 | 0.0 | 0.00 | 0.55 | 0.21 | 84 | 1010.8 |
| 20260507234528 | 68 | 161 | 0.0 | 2.0 | 0.00 | 0.55 | 0.21 | 85 | 1010.8 |
| 20260507234100 | 68 | 161 | 0.0 | 2.0 | 0.00 | 0.55 | 0.21 | 84 | 1010.7 |
| 20260507233544 | 68 | 161 | 0.0 | 1.0 | 0.00 | 0.55 | 0.21 | 84 | 1010.7 |
| 20260507233029 | 68 | 161 | 0.0 | 1.0 | 0.00 | 0.55 | 0.21 | 85 | 1010.7 |
| 20260507232542 | 68 | 161 | 0.0 | 0.0 | 0.00 | 0.55 | 0.21 | 85 | 1010.5 |
| 20260507232046 | 68 | 161 | 0.0 | 1.0 | 0.00 | 0.55 | 0.21 | 85 | 1010.5 |
| 20260507231528 | 68 | 161 | 0.0 | 1.0 | 0.00 | 0.55 | 0.21 | 85 | 1010.5 |
| 20260507231016 | 68 | 161 | 0.0 | 1.0 | 0.00 | 0.55 | 0.21 | 85 | 1010.4 |
| 20260507230525 | 68 | 161 | 0.0 | 1.0 | 0.00 | 0.55 | 0.21 | 85 | 1010.4 |
| 20260507230029 | 69 | 161 | 0.0 | 0.0 | 0.00 | 0.55 | 0.21 | 85 | 1010.4 |
| 20260507225523 | 69 | 161 | 0.0 | 1.0 | 0.00 | 0.55 | 0.21 | 85 | 1010.3 |
| 20260507225057 | 69 | 161 | 0.0 | 1.0 | 0.00 | 0.55 | 0.21 | 85 | 1010.3 |
| 20260507224544 | 69 | 161 | 0.0 | 1.0 | 0.00 | 0.55 | 0.21 | 84 | 1010.3 |
| 20260507224043 | 69 | 161 | 0.0 | 1.0 | 0.00 | 0.55 | 0.21 | 84 | 1010.3 |
| 20260507223528 | 69 | 161 | 0.0 | 1.0 | 0.00 | 0.55 | 0.21 | 84 | 1010.3 |
| 20260507223025 | 69 | 161 | 0.0 | 1.0 | 0.00 | 0.55 | 0.21 | 83 | 1010.3 |
| 20260507222518 | 69 | 161 | 0.0 | 1.0 | 0.00 | 0.55 | 0.21 | 84 | 1010.3 |
| 20260507222030 | 70 | 161 | 0.0 | 1.0 | 0.00 | 0.55 | 0.21 | 83 | 1010.3 |
| 20260507221540 | 70 | 161 | 0.0 | 1.0 | 0.00 | 0.55 | 0.21 | 82 | 1010.3 |
| 20260507221045 | 70 | 161 | 0.0 | 0.0 | 0.00 | 0.55 | 0.21 | 83 | 1010.3 |
| 20260507220021 | 70 | 161 | 0.0 | 1.0 | 0.00 | 0.57 | 0.21 | 82 | 1010.3 |
| 20260507215520 | 70 | 161 | 0.0 | 3.0 | 0.00 | 0.57 | 0.21 | 81 | 1010.3 |
| 20260507215037 | 70 | 161 | 0.0 | 4.0 | 0.00 | 0.57 | 0.21 | 80 | 1010.3 |
| 20260507214534 | 70 | 161 | 1.0 | 4.0 | 0.00 | 0.57 | 0.21 | 81 | 1010.3 |
| 20260507214035 | 70 | 161 | 0.0 | 3.0 | 0.00 | 0.57 | 0.21 | 83 | 1010.2 |
| 20260507213521 | 70 | 160 | 1.0 | 3.0 | 0.00 | 0.57 | 0.21 | 82 | 1010.2 |
| 20260507212535 | 70 | 169 | 0.0 | 2.0 | 0.00 | 0.57 | 0.21 | 83 | 1010.2 |
| 20260507212038 | 70 | 169 | 0.0 | 2.0 | 0.00 | 0.57 | 0.21 | 83 | 1010.2 |
| 20260507211548 | 70 | 169 | 0.0 | 1.0 | 0.00 | 0.57 | 0.21 | 81 | 1010.2 |
| 20260507211044 | 70 | 169 | 0.0 | 2.0 | 0.00 | 0.57 | 0.21 | 81 | 1009.8 |
| 20260507210532 | 70 | 169 | 0.0 | 2.0 | 0.00 | 0.57 | 0.21 | 81 | 1009.8 |
| 20260507210031 | 71 | 169 | 0.0 | 2.0 | 0.00 | 0.72 | 0.21 | 81 | 1009.8 |
| 20260507205528 | 71 | 169 | 0.0 | 2.0 | 0.00 | 0.72 | 0.21 | 82 | 1010.2 |
| 20260507205017 | 70 | 169 | 0.0 | 3.0 | 0.00 | 0.72 | 0.21 | 81 | 1010.2 |
| 20260507204521 | 70 | 169 | 1.0 | 3.0 | 0.00 | 0.72 | 0.21 | 79 | 1010.2 |
| 20260507203541 | 70 | 187 | 1.0 | 2.0 | 0.00 | 0.72 | 0.21 | 81 | 1010.3 |
| 20260507203036 | 70 | 187 | 0.0 | 1.0 | 0.00 | 0.72 | 0.21 | 82 | 1010.3 |
| 20260507202538 | 70 | 187 | 0.0 | 3.0 | 0.00 | 0.72 | 0.21 | 82 | 1010.3 |
| 20260507202020 | 70 | 187 | 1.0 | 3.0 | 0.00 | 0.72 | 0.21 | 81 | 1010.3 |
| 20260507201527 | 70 | 136 | 1.0 | 2.0 | 0.00 | 0.72 | 0.21 | 83 | 1010.3 |
| 20260507201042 | 69 | 136 | 0.0 | 2.0 | 0.00 | 0.72 | 0.21 | 82 | 1010.7 |
| 20260507200023 | 69 | 136 | 1.0 | 3.0 | 0.00 | 0.72 | 0.21 | 81 | 1010.7 |
| 20260507195526 | 69 | 136 | 1.0 | 2.0 | 0.00 | 0.72 | 0.21 | 82 | 1010.7 |
| 20260507195029 | 69 | 136 | 1.0 | 2.0 | 0.00 | 0.72 | 0.21 | 83 | 1010.7 |
| 20260507194529 | 69 | 136 | 0.0 | 2.0 | 0.00 | 0.72 | 0.21 | 84 | 1010.7 |
| 20260507194017 | 69 | 136 | 0.0 | 1.0 | 0.00 | 0.72 | 0.21 | 84 | 1010.7 |
| 20260507193517 | 69 | 136 | 0.0 | 1.0 | 0.00 | 0.72 | 0.21 | 84 | 1010.7 |
| 20260507193032 | 69 | 136 | 1.0 | 2.0 | 0.00 | 0.72 | 0.21 | 82 | 1010.7 |